Weather in Nizhnedevitsk

Russia / Voronezh Oblast     51°41′06″N   38°19′30″E
temp.,
°C
wind,
m/s
gust,
m/s
humid.,
%
clouds,
%
prec.,
mm/h
press.,
hPa
HPBL,
m
6 august, fri
fri600:00+21ne355297 0.1 101497
03:00+20se494737 0.1 1013166
06:00+19se495720 0.0 1013168
09:00+26sse57358 0.0 1012614
12:00+30sse5731100 0.0 10101796
15:00+32s7828100 0.0 10082764
18:00+32s773338 0.0 10072060
21:00+24se410494 0.1 1008159
7 august, sat
sat700:00+25se511425 0.0 1008250
03:00+22sse5144825 0.1 1009357
06:00+21se4124472 0.1 1010284
09:00+22ssw71358100 0.1 1011649
12:00+26ese6934100 0.1 1009568
15:00+33s5922100 0.1 10082539
18:00+28nw3539100 0.0 1008115
21:00+23nnw3450100 0.0 101063
8 august, sun
sun800:00+23nne3449100 0.0 101169
03:00+20wnw3458100 0.1 101255
06:00+20n6974100 0.0 1012233
09:00+24nne3454100 0.0 1013359
12:00+27n3236100 0.0 1014275
15:00+31e4529100 0.0 10141115
18:00+27se3631100 0.0 1014115
21:00+26s383495 0.0 1016182
9 august, mon
mon900:00+24nne1137100 0.0 101612
03:00+24ene3437100 0.0 101782
06:00+22ene3646100 0.0 1017112
09:00+26ene4737100 0.0 1017316
12:00+30ese8828100 0.0 10161509
15:00+28e81034100 0.0 10171175
18:00+26e4942100 0.0 1017401
21:00+23nne3553100 0.0 1017157
10 august, tue
tue1000:00+20ene2572100 0.5 1017135
03:00+20nne61172100 0.7 1015241
06:00+18ne5980100 0.8 1016310
09:00+18nne5108778 2.0 1016297
12:00+24nne795264 0.3 1014617
15:00+24n3550100 0.4 1013159
18:00+25n4740100 0.0 1012252
21:00+23nne494984 0.0 1011180